Location: Unspecified
(51.1793°N, 0.0000°E)
Time: 02:17:55
(UTC+00:00)

FORMOSAT 3F - Visible Passes

Search period start: 05 April 2026 00:00
Search period end: 15 April 2026 00:00
Orbit: 758 x 816 km, 72.0° (Epoch: 29 March)

Date Brightness Start Highest point End Pass type
(mag) Time Alt. Az. Time Alt. Az. Time Alt. Az.
5 Apr 8.9 00:38:50 49° NNW 00:38:50 49° NNW 00:43:10 10° NNE visible
5 Apr 10.2 02:19:27 14° WNW 02:21:39 17° NNW 02:25:10 10° N visible
5 Apr 10.3 22:26:53 13° ENE 22:26:53 13° ENE 22:27:44 10° NE visible
6 Apr 8.9 00:07:30 49° NNE 00:07:30 49° NNE 00:11:32 10° NNE visible
6 Apr 10.0 01:48:07 18° WNW 01:49:38 20° NW 01:53:43 10° N visible
6 Apr 9.0 23:36:08 43° NE 23:36:08 43° NE 23:39:50 10° NNE visible
7 Apr 9.7 01:16:45 24° WNW 01:17:39 25° NW 01:22:13 10° NNE visible
7 Apr 9.2 23:04:44 36° NE 23:04:44 36° NE 23:08:06 10° NE visible
8 Apr 9.4 00:45:20 32° WNW 00:45:45 32° NW 00:50:42 10° NNE visible
8 Apr 10.7 02:28:37 10° NW 02:30:21 11° NNW 02:32:04 10° N visible
8 Apr 9.4 22:33:17 29° ENE 22:33:17 29° ENE 22:36:17 10° NE visible
9 Apr 9.0 00:13:53 41° NW 00:13:54 41° NW 00:19:08 10° NNE visible
9 Apr 10.6 01:55:34 10° WNW 01:58:13 13° NNW 02:00:52 10° N visible
9 Apr 9.6 22:01:46 23° ENE 22:01:46 23° ENE 22:04:21 10° NE visible
9 Apr 8.6 23:42:23 54° NW 23:42:23 54° NW 23:47:32 10° NNE visible
10 Apr 10.5 01:22:59 11° WNW 01:26:07 16° NNW 01:29:30 10° N visible
10 Apr 9.8 21:30:12 17° ENE 21:30:12 17° ENE 21:32:15 10° NE visible
10 Apr 8.3 23:10:48 70° NNW 23:10:48 70° NNW 23:15:54 10° NNE visible
11 Apr 10.3 00:51:24 14° WNW 00:54:04 20° NW 00:58:03 10° N visible
11 Apr 10.0 20:58:33 13° ENE 20:58:33 13° ENE 20:59:50 10° ENE visible
11 Apr 8.1 22:39:10 74° NE 22:39:10 74° NE 22:44:13 10° NNE visible
12 Apr 10.0 00:19:45 19° WNW 00:22:06 24° NW 00:26:34 10° NNE visible
12 Apr 8.2 22:07:24 59° E 22:07:24 59° E 22:12:29 10° NNE visible
12 Apr 9.7 23:47:59 23° W 23:50:10 30° NW 23:55:02 10° NNE visible
13 Apr 10.9 01:33:20 10° NW 01:34:49 11° NNW 01:36:19 10° N visible
13 Apr 8.4 21:35:31 43° ESE 21:35:31 43° ESE 21:40:41 10° NE visible
13 Apr 9.3 23:16:06 28° W 23:18:18 39° NW 23:23:28 10° NNE visible
14 Apr 10.8 01:00:12 10° NW 01:02:40 13° NNW 01:05:09 10° N visible
14 Apr 10.9 04:30:54 10° N 04:33:44 14° NNE 04:36:33 10° ENE visible
14 Apr 8.8 21:03:28 31° ESE 21:03:58 31° ESE 21:08:47 10° NE visible
14 Apr 8.8 22:44:02 30° WSW 22:46:29 52° NW 22:51:53 10° NNE visible
